Time,TemperatureF,DewpointF,PressureIn,WindDirection,WindDirectionDegrees,WindSpeedMPH,WindSpeedGustMPH,Humidity,HourlyPrecipIn,Conditions,Clouds,dailyrainin,SoftwareType,DateUTC
2013-04-27 00:02:00,45.7,43.3,0.00,North,0,0.0,0.0,91,0.00,,,0.00,WUHU216CR1000,2013-04-27 07:02:00,
2013-04-27 00:07:00,45.7,43.3,0.00,North,0,0.0,0.0,91,0.00,,,0.00,WUHU216CR1000,2013-04-27 07:07:00,
2013-04-27 00:17:00,45.4,43.3,0.00,North,0,0.0,0.0,92,0.00,,,0.00,WUHU216CR1000,2013-04-27 07:17:00,
2013-04-27 00:22:00,45.4,43.3,0.00,North,0,0.0,0.0,92,0.00,,,0.00,WUHU216CR1000,2013-04-27 07:22:00,
2013-04-27 00:32:00,44.8,42.5,0.00,North,0,0.0,0.0,92,0.00,,,0.00,WUHU216CR1000,2013-04-27 07:32:00,
2013-04-27 00:37:00,44.8,42.5,0.00,North,0,0.0,0.0,92,0.00,,,0.00,WUHU216CR1000,2013-04-27 07:37:00,
2013-04-27 00:47:00,44.4,42.5,0.00,North,0,0.0,0.0,93,0.00,,,0.00,WUHU216CR1000,2013-04-27 07:47:00,
2013-04-27 00:52:00,44.4,42.5,0.00,North,0,0.0,0.0,93,0.00,,,0.00,WUHU216CR1000,2013-04-27 07:52:00,
2013-04-27 01:02:00,44.1,42.3,0.00,North,0,0.0,0.0,93,0.00,,,0.00,WUHU216CR1000,2013-04-27 08:02:00,
2013-04-27 01:07:00,44.1,42.3,0.00,North,0,0.0,0.0,93,0.00,,,0.00,WUHU216CR1000,2013-04-27 08:07:00,
2013-04-27 01:17:00,44.0,42.2,0.00,North,0,0.0,0.0,93,0.00,,,0.00,WUHU216CR1000,2013-04-27 08:17:00,
2013-04-27 01:22:00,44.0,42.2,0.00,North,0,0.0,0.0,93,0.00,,,0.00,WUHU216CR1000,2013-04-27 08:22:00,
2013-04-27 01:32:00,44.9,43.2,0.00,West,264,0.0,2.8,94,0.00,,,0.00,WUHU216CR1000,2013-04-27 08:32:00,
2013-04-27 01:37:00,44.9,43.2,0.00,West,264,0.0,2.8,94,0.00,,,0.00,WUHU216CR1000,2013-04-27 08:37:00,
2013-04-27 01:47:00,45.8,44.1,0.00,North,0,0.0,0.0,94,0.00,,,0.00,WUHU216CR1000,2013-04-27 08:47:00,
2013-04-27 01:52:00,45.8,44.1,0.00,North,0,0.0,0.0,94,0.00,,,0.00,WUHU216CR1000,2013-04-27 08:52:00,
2013-04-27 02:02:00,46.4,44.6,0.00,NW,318,0.4,2.8,93,0.00,,,0.00,WUHU216CR1000,2013-04-27 09:02:00,
2013-04-27 02:07:00,46.4,44.6,0.00,NW,318,0.4,2.8,93,0.00,,,0.00,WUHU216CR1000,2013-04-27 09:07:00,
2013-04-27 02:17:00,47.0,45.1,0.00,NNW,347,1.2,4.6,93,0.00,,,0.00,WUHU216CR1000,2013-04-27 09:17:00,
2013-04-27 02:22:00,47.0,45.1,0.00,NNW,347,1.2,4.6,93,0.00,,,0.00,WUHU216CR1000,2013-04-27 09:22:00,
2013-04-27 02:32:00,47.8,45.9,0.00,North,3,2.9,6.4,93,0.00,,,0.00,WUHU216CR1000,2013-04-27 09:32:00,
2013-04-27 02:37:00,47.8,45.9,0.00,North,3,2.9,6.4,93,0.00,,,0.00,WUHU216CR1000,2013-04-27 09:37:00,
2013-04-27 02:47:00,47.9,46.0,0.00,NNW,332,1.3,4.6,93,0.00,,,0.00,WUHU216CR1000,2013-04-27 09:47:00,
2013-04-27 02:52:00,47.9,46.0,0.00,NNW,332,1.3,4.6,93,0.00,,,0.00,WUHU216CR1000,2013-04-27 09:52:00,
2013-04-27 03:02:00,48.0,46.0,0.00,NNW,344,1.8,4.6,93,0.00,,,0.00,WUHU216CR1000,2013-04-27 10:02:00,
2013-04-27 03:07:00,48.0,46.0,0.00,NNW,344,1.8,4.6,93,0.00,,,0.00,WUHU216CR1000,2013-04-27 10:07:00,
2013-04-27 03:17:00,47.8,45.9,0.00,NW,305,1.6,4.6,93,0.00,,,0.00,WUHU216CR1000,2013-04-27 10:17:00,
2013-04-27 03:22:00,47.8,45.9,0.00,NW,305,1.6,4.6,93,0.00,,,0.00,WUHU216CR1000,2013-04-27 10:22:00,
2013-04-27 03:32:00,47.8,45.9,0.00,South,189,1.9,4.6,93,0.00,,,0.00,WUHU216CR1000,2013-04-27 10:32:00,
2013-04-27 03:37:00,47.8,45.9,0.00,South,189,1.9,4.6,93,0.00,,,0.00,WUHU216CR1000,2013-04-27 10:37:00,
2013-04-27 03:47:00,47.8,45.9,0.00,WSW,237,2.1,4.6,93,0.00,,,0.00,WUHU216CR1000,2013-04-27 10:47:00,
2013-04-27 03:52:00,47.8,45.9,0.00,WSW,237,2.1,4.6,93,0.00,,,0.00,WUHU216CR1000,2013-04-27 10:52:00,
2013-04-27 04:02:00,47.7,45.7,0.00,WSW,247,1.8,4.6,93,0.00,,,0.00,WUHU216CR1000,2013-04-27 11:02:00,
2013-04-27 04:07:00,47.7,45.7,0.00,WSW,247,1.8,4.6,93,0.00,,,0.00,WUHU216CR1000,2013-04-27 11:07:00,
2013-04-27 04:17:00,47.6,45.7,0.00,WSW,246,2.1,4.6,93,0.00,,,0.00,WUHU216CR1000,2013-04-27 11:17:00,
2013-04-27 04:22:00,47.6,45.7,0.00,WSW,246,2.1,4.6,93,0.00,,,0.00,WUHU216CR1000,2013-04-27 11:22:00,
2013-04-27 04:32:00,47.7,45.9,0.00,West,265,1.7,4.6,93,0.00,,,0.00,WUHU216CR1000,2013-04-27 11:32:00,
2013-04-27 04:37:00,47.7,45.9,0.00,West,265,1.7,4.6,93,0.00,,,0.00,WUHU216CR1000,2013-04-27 11:37:00,
2013-04-27 04:47:00,47.6,45.7,0.00,West,273,1.8,4.6,93,0.00,,,0.00,WUHU216CR1000,2013-04-27 11:47:00,
2013-04-27 04:52:00,47.6,45.7,0.00,West,273,1.8,4.6,93,0.00,,,0.00,WUHU216CR1000,2013-04-27 11:52:00,
2013-04-27 05:02:00,47.4,45.4,0.00,WSW,251,2.8,6.4,93,0.00,,,0.00,WUHU216CR1000,2013-04-27 12:02:00,
2013-04-27 05:07:00,47.4,45.4,0.00,WSW,251,2.8,6.4,93,0.00,,,0.00,WUHU216CR1000,2013-04-27 12:07:00,
2013-04-27 05:17:00,47.3,45.4,0.00,WSW,254,1.3,4.6,93,0.00,,,0.00,WUHU216CR1000,2013-04-27 12:17:00,
2013-04-27 05:22:00,47.3,45.4,0.00,WSW,254,1.3,4.6,93,0.00,,,0.00,WUHU216CR1000,2013-04-27 12:22:00,
2013-04-27 05:32:00,47.3,45.5,0.00,SW,227,0.6,2.8,93,0.00,,,0.00,WUHU216CR1000,2013-04-27 12:32:00,
2013-04-27 05:37:00,47.3,45.5,0.00,SW,227,0.6,2.8,93,0.00,,,0.00,WUHU216CR1000,2013-04-27 12:37:00,
2013-04-27 05:47:00,47.3,45.5,0.00,SW,221,1.2,2.8,93,0.00,,,0.00,WUHU216CR1000,2013-04-27 12:47:00,
2013-04-27 05:52:00,47.3,45.5,0.00,SW,221,1.2,2.8,93,0.00,,,0.00,WUHU216CR1000,2013-04-27 12:52:00,
2013-04-27 06:02:00,47.3,45.5,0.00,SW,214,0.9,4.6,94,0.00,,,0.00,WUHU216CR1000,2013-04-27 13:02:00,
2013-04-27 06:07:00,47.3,45.5,0.00,SW,214,0.9,4.6,94,0.00,,,0.00,WUHU216CR1000,2013-04-27 13:07:00,
2013-04-27 06:17:00,47.2,45.3,0.00,West,262,2.1,4.6,93,0.00,,,0.00,WUHU216CR1000,2013-04-27 13:17:00,
2013-04-27 06:22:00,47.2,45.3,0.00,West,262,2.1,4.6,93,0.00,,,0.00,WUHU216CR1000,2013-04-27 13:22:00,
2013-04-27 06:32:00,47.1,45.2,0.00,WSW,249,0.8,4.6,93,0.00,,,0.00,WUHU216CR1000,2013-04-27 13:32:00,
2013-04-27 06:37:00,47.1,45.2,0.00,WSW,249,0.8,4.6,93,0.00,,,0.00,WUHU216CR1000,2013-04-27 13:37:00,
2013-04-27 06:48:00,47.0,45.0,0.00,WSW,246,2.3,4.6,93,0.00,,,0.00,WUHU216CR1000,2013-04-27 13:48:00,
2013-04-27 06:53:00,47.0,45.0,0.00,WSW,246,2.3,4.6,93,0.00,,,0.00,WUHU216CR1000,2013-04-27 13:53:00,
2013-04-27 07:02:00,47.1,45.1,0.00,SW,234,1.7,4.6,93,0.00,,,0.00,WUHU216CR1000,2013-04-27 14:02:00,
2013-04-27 07:07:00,47.1,45.1,0.00,SW,234,1.7,4.6,93,0.00,,,0.00,WUHU216CR1000,2013-04-27 14:07:00,
2013-04-27 07:17:00,47.1,45.2,0.00,West,261,1.6,4.6,93,0.00,,,0.00,WUHU216CR1000,2013-04-27 14:17:00,
2013-04-27 07:22:00,47.1,45.2,0.00,West,261,1.6,4.6,93,0.00,,,0.00,WUHU216CR1000,2013-04-27 14:22:00,
2013-04-27 07:32:00,47.2,45.3,0.00,WSW,257,1.7,4.6,93,0.00,,,0.00,WUHU216CR1000,2013-04-27 14:32:00,
2013-04-27 07:37:00,47.2,45.3,0.00,WSW,257,1.7,4.6,93,0.00,,,0.00,WUHU216CR1000,2013-04-27 14:37:00,
2013-04-27 07:47:00,47.3,45.4,0.00,WSW,258,1.3,4.6,93,0.00,,,0.00,WUHU216CR1000,2013-04-27 14:47:00,
2013-04-27 07:52:00,47.3,45.4,0.00,WSW,258,1.3,4.6,93,0.00,,,0.00,WUHU216CR1000,2013-04-27 14:52:00,
2013-04-27 08:02:00,47.6,45.7,0.00,SW,228,0.5,4.6,93,0.00,,,0.00,WUHU216CR1000,2013-04-27 15:02:00,
2013-04-27 08:07:00,47.6,45.7,0.00,SW,228,0.5,4.6,93,0.00,,,0.00,WUHU216CR1000,2013-04-27 15:07:00,
2013-04-27 08:17:00,47.9,45.9,0.00,SW,233,1.1,6.4,93,0.00,,,0.00,WUHU216CR1000,2013-04-27 15:17:00,
2013-04-27 08:22:00,47.9,45.9,0.00,SW,233,1.1,6.4,93,0.00,,,0.00,WUHU216CR1000,2013-04-27 15:22:00,
2013-04-27 08:32:00,48.1,46.0,0.00,WSW,242,1.7,4.6,92,0.00,,,0.00,WUHU216CR1000,2013-04-27 15:32:00,
2013-04-27 08:37:00,48.1,46.0,0.00,WSW,242,1.7,4.6,92,0.00,,,0.00,WUHU216CR1000,2013-04-27 15:37:00,
2013-04-27 08:47:00,48.6,46.3,0.00,WNW,299,1.9,4.6,91,0.00,,,0.00,WUHU216CR1000,2013-04-27 15:47:00,
2013-04-27 08:52:00,48.6,46.3,0.00,WNW,299,1.9,4.6,91,0.00,,,0.00,WUHU216CR1000,2013-04-27 15:52:00,
2013-04-27 09:02:00,49.0,46.3,0.00,NNW,334,1.2,4.6,90,0.00,,,0.00,WUHU216CR1000,2013-04-27 16:02:00,
2013-04-27 09:07:00,49.0,46.3,0.00,NNW,334,1.2,4.6,90,0.00,,,0.00,WUHU216CR1000,2013-04-27 16:07:00,
2013-04-27 09:17:00,49.6,46.4,0.00,WSW,247,0.7,4.6,89,0.00,,,0.00,WUHU216CR1000,2013-04-27 16:17:00,
2013-04-27 09:22:00,49.6,46.4,0.00,WSW,247,0.7,4.6,89,0.00,,,0.00,WUHU216CR1000,2013-04-27 16:22:00,
2013-04-27 09:32:00,50.2,46.5,0.00,SE,133,1.8,4.6,87,0.00,,,0.00,WUHU216CR1000,2013-04-27 16:32:00,
2013-04-27 09:37:00,50.2,46.5,0.00,SE,133,1.8,4.6,87,0.00,,,0.00,WUHU216CR1000,2013-04-27 16:37:00,
2013-04-27 09:47:00,51.7,46.8,0.00,East,81,2.5,6.4,83,0.00,,,0.00,WUHU216CR1000,2013-04-27 16:47:00,
2013-04-27 09:52:00,51.7,46.8,0.00,East,81,2.5,6.4,83,0.00,,,0.00,WUHU216CR1000,2013-04-27 16:52:00,
2013-04-27 10:02:00,52.8,47.1,0.00,NNE,31,2.6,6.4,81,0.00,,,0.00,WUHU216CR1000,2013-04-27 17:02:00,
2013-04-27 10:07:00,52.8,47.1,0.00,NNE,31,2.6,6.4,81,0.00,,,0.00,WUHU216CR1000,2013-04-27 17:07:00,
2013-04-27 10:17:00,54.4,47.5,0.00,North,360,2.3,6.4,77,0.00,,,0.00,WUHU216CR1000,2013-04-27 17:17:00,
2013-04-27 10:22:00,54.4,47.5,0.00,North,360,2.3,6.4,77,0.00,,,0.00,WUHU216CR1000,2013-04-27 17:22:00,
2013-04-27 10:32:00,56.5,47.9,0.00,SE,125,3.0,6.4,73,0.00,,,0.00,WUHU216CR1000,2013-04-27 17:32:00,
2013-04-27 10:37:00,56.5,47.9,0.00,SE,125,3.0,6.4,73,0.00,,,0.00,WUHU216CR1000,2013-04-27 17:37:00,
2013-04-27 10:47:00,56.7,47.9,0.00,SSW,206,3.7,6.4,72,0.00,,,0.00,WUHU216CR1000,2013-04-27 17:47:00,
2013-04-27 10:52:00,56.7,47.9,0.00,SSW,206,3.7,6.4,72,0.00,,,0.00,WUHU216CR1000,2013-04-27 17:52:00,
2013-04-27 11:02:00,58.7,48.6,0.00,NE,43,2.5,6.4,69,0.00,,,0.00,WUHU216CR1000,2013-04-27 18:02:00,
2013-04-27 11:07:00,58.7,48.6,0.00,NE,43,2.5,6.4,69,0.00,,,0.00,WUHU216CR1000,2013-04-27 18:07:00,
2013-04-27 11:17:00,60.5,49.0,0.00,ESE,123,3.4,8.2,66,0.00,,,0.00,WUHU216CR1000,2013-04-27 18:17:00,
2013-04-27 11:22:00,60.5,49.0,0.00,ESE,123,3.4,8.2,66,0.00,,,0.00,WUHU216CR1000,2013-04-27 18:22:00,
2013-04-27 11:32:00,61.7,49.5,0.00,East,91,3.0,6.4,64,0.00,,,0.00,WUHU216CR1000,2013-04-27 18:32:00,
2013-04-27 11:37:00,61.7,49.5,0.00,East,91,3.0,6.4,64,0.00,,,0.00,WUHU216CR1000,2013-04-27 18:37:00,
2013-04-27 11:47:00,64.1,50.4,0.00,East,97,3.3,6.4,61,0.00,,,0.00,WUHU216CR1000,2013-04-27 18:47:00,
2013-04-27 11:52:00,64.1,50.4,0.00,East,97,3.3,6.4,61,0.00,,,0.00,WUHU216CR1000,2013-04-27 18:52:00,
2013-04-27 12:02:00,65.3,51.1,0.00,East,91,3.8,8.2,60,0.00,,,0.00,WUHU216CR1000,2013-04-27 19:02:00,
2013-04-27 12:07:00,65.3,51.1,0.00,East,91,3.8,8.2,60,0.00,,,0.00,WUHU216CR1000,2013-04-27 19:07:00,
2013-04-27 12:17:00,66.5,52.1,0.00,East,101,4.6,9.9,60,0.00,,,0.00,WUHU216CR1000,2013-04-27 19:17:00,
2013-04-27 12:22:00,66.5,52.1,0.00,East,101,4.6,9.9,60,0.00,,,0.00,WUHU216CR1000,2013-04-27 19:22:00,
2013-04-27 12:32:00,68.4,53.0,0.00,East,81,4.1,9.9,58,0.00,,,0.00,WUHU216CR1000,2013-04-27 19:32:00,
2013-04-27 12:37:00,68.4,53.0,0.00,East,81,4.1,9.9,58,0.00,,,0.00,WUHU216CR1000,2013-04-27 19:37:00,
2013-04-27 12:47:00,69.9,53.3,0.00,East,99,4.5,9.9,56,0.00,,,0.00,WUHU216CR1000,2013-04-27 19:47:00,
2013-04-27 12:52:00,69.9,53.3,0.00,East,99,4.5,9.9,56,0.00,,,0.00,WUHU216CR1000,2013-04-27 19:52:00,
2013-04-27 13:02:00,70.7,53.6,0.00,ESE,118,4.4,8.2,55,0.00,,,0.00,WUHU216CR1000,2013-04-27 20:02:00,
2013-04-27 13:07:00,70.7,53.6,0.00,ESE,118,4.4,8.2,55,0.00,,,0.00,WUHU216CR1000,2013-04-27 20:07:00,
2013-04-27 13:17:00,72.6,53.9,0.00,ESE,108,3.8,8.2,52,0.00,,,0.00,WUHU216CR1000,2013-04-27 20:17:00,
2013-04-27 13:22:00,72.6,53.9,0.00,ESE,108,3.8,8.2,52,0.00,,,0.00,WUHU216CR1000,2013-04-27 20:22:00,
2013-04-27 13:32:00,73.9,54.8,0.00,ENE,76,4.1,8.2,51,0.00,,,0.00,WUHU216CR1000,2013-04-27 20:32:00,
2013-04-27 13:37:00,73.9,54.8,0.00,ENE,76,4.1,8.2,51,0.00,,,0.00,WUHU216CR1000,2013-04-27 20:37:00,
2013-04-27 13:47:00,75.8,55.3,0.00,East,87,3.9,9.9,49,0.00,,,0.00,WUHU216CR1000,2013-04-27 20:47:00,
2013-04-27 13:52:00,75.8,55.3,0.00,East,87,3.9,9.9,49,0.00,,,0.00,WUHU216CR1000,2013-04-27 20:52:00,
2013-04-27 14:02:00,77.5,55.4,0.00,NNE,29,3.5,8.2,46,0.00,,,0.00,WUHU216CR1000,2013-04-27 21:02:00,
2013-04-27 14:07:00,77.5,55.4,0.00,NNE,29,3.5,8.2,46,0.00,,,0.00,WUHU216CR1000,2013-04-27 21:07:00,
2013-04-27 14:17:00,79.2,55.4,0.00,NNE,12,3.9,8.2,44,0.00,,,0.00,WUHU216CR1000,2013-04-27 21:17:00,
2013-04-27 14:22:00,79.2,55.4,0.00,NNE,12,3.9,8.2,44,0.00,,,0.00,WUHU216CR1000,2013-04-27 21:22:00,
2013-04-27 14:32:00,80.7,55.0,0.00,NNE,33,3.0,8.2,41,0.00,,,0.00,WUHU216CR1000,2013-04-27 21:32:00,
2013-04-27 14:37:00,80.7,55.0,0.00,NNE,33,3.0,8.2,41,0.00,,,0.00,WUHU216CR1000,2013-04-27 21:37:00,
2013-04-27 14:47:00,80.7,55.0,0.00,NNE,33,3.0,8.2,41,0.00,,,0.00,WUHU216CR1000,2013-04-27 21:47:00,
2013-04-27 14:52:00,80.7,55.0,0.00,NNE,33,3.0,8.2,41,0.00,,,0.00,WUHU216CR1000,2013-04-27 21:52:00,
2013-04-27 15:02:00,81.2,54.5,0.00,WSW,246,4.3,9.9,40,0.00,,,0.00,WUHU216CR1000,2013-04-27 22:02:00,
2013-04-27 15:07:00,81.2,54.5,0.00,WSW,246,4.3,9.9,40,0.00,,,0.00,WUHU216CR1000,2013-04-27 22:07:00,
2013-04-27 15:17:00,81.6,53.6,0.00,WSW,248,4.8,8.2,38,0.00,,,0.00,WUHU216CR1000,2013-04-27 22:17:00,
2013-04-27 15:22:00,81.6,53.6,0.00,WSW,248,4.8,8.2,38,0.00,,,0.00,WUHU216CR1000,2013-04-27 22:22:00,
2013-04-27 15:32:00,82.1,53.5,0.00,SW,225,5.7,9.9,37,0.00,,,0.00,WUHU216CR1000,2013-04-27 22:32:00,
2013-04-27 15:37:00,82.1,53.5,0.00,SW,225,5.7,9.9,37,0.00,,,0.00,WUHU216CR1000,2013-04-27 22:37:00,
2013-04-27 15:47:00,82.1,53.4,0.00,WSW,237,7.1,11.7,37,0.00,,,0.00,WUHU216CR1000,2013-04-27 22:47:00,
2013-04-27 15:52:00,82.1,53.4,0.00,WSW,237,7.1,11.7,37,0.00,,,0.00,WUHU216CR1000,2013-04-27 22:52:00,
2013-04-27 16:02:00,81.8,52.5,0.00,WSW,243,7.8,13.5,36,0.00,,,0.00,WUHU216CR1000,2013-04-27 23:02:00,
2013-04-27 16:07:00,81.8,52.5,0.00,WSW,243,7.8,13.5,36,0.00,,,0.00,WUHU216CR1000,2013-04-27 23:07:00,
2013-04-27 16:17:00,81.3,50.3,0.00,WSW,241,7.8,11.7,34,0.00,,,0.00,WUHU216CR1000,2013-04-27 23:17:00,
2013-04-27 16:22:00,81.3,50.3,0.00,WSW,241,7.8,11.7,34,0.00,,,0.00,WUHU216CR1000,2013-04-27 23:22:00,
2013-04-27 16:32:00,80.4,51.0,0.00,WSW,241,8.8,15.3,36,0.00,,,0.00,WUHU216CR1000,2013-04-27 23:32:00,
2013-04-27 16:37:00,80.4,51.0,0.00,WSW,241,8.8,15.3,36,0.00,,,0.00,WUHU216CR1000,2013-04-27 23:37:00,
2013-04-27 16:47:00,79.7,50.5,0.00,WSW,244,7.3,13.5,36,0.00,,,0.00,WUHU216CR1000,2013-04-27 23:47:00,
2013-04-27 16:52:00,79.7,50.5,0.00,WSW,244,7.3,13.5,36,0.00,,,0.00,WUHU216CR1000,2013-04-27 23:52:00,
2013-04-27 17:02:00,80.2,50.4,0.00,WSW,252,7.2,13.5,36,0.00,,,0.00,WUHU216CR1000,2013-04-28 00:02:00,
2013-04-27 17:07:00,80.2,50.4,0.00,WSW,252,7.2,13.5,36,0.00,,,0.00,WUHU216CR1000,2013-04-28 00:07:00,
2013-04-27 17:17:00,80.0,48.4,0.00,WSW,253,6.6,11.7,33,0.00,,,0.00,WUHU216CR1000,2013-04-28 00:17:00,
2013-04-27 17:22:00,80.0,48.4,0.00,WSW,253,6.6,11.7,33,0.00,,,0.00,WUHU216CR1000,2013-04-28 00:22:00,
2013-04-27 17:32:00,80.6,47.1,0.00,WSW,254,5.6,9.9,31,0.00,,,0.00,WUHU216CR1000,2013-04-28 00:32:00,
2013-04-27 17:37:00,80.6,47.1,0.00,WSW,254,5.6,9.9,31,0.00,,,0.00,WUHU216CR1000,2013-04-28 00:37:00,
2013-04-27 17:47:00,81.4,51.1,0.00,North,0,4.1,9.9,35,0.00,,,0.00,WUHU216CR1000,2013-04-28 00:47:00,
2013-04-27 17:52:00,81.4,51.1,0.00,North,0,4.1,9.9,35,0.00,,,0.00,WUHU216CR1000,2013-04-28 00:52:00,
2013-04-27 18:02:00,79.2,51.3,0.00,ENE,58,4.1,8.2,38,0.00,,,0.00,WUHU216CR1000,2013-04-28 01:02:00,
2013-04-27 18:07:00,79.2,51.3,0.00,ENE,58,4.1,8.2,38,0.00,,,0.00,WUHU216CR1000,2013-04-28 01:07:00,
2013-04-27 18:17:00,76.4,51.3,0.00,NE,53,3.8,8.2,42,0.00,,,0.00,WUHU216CR1000,2013-04-28 01:17:00,
2013-04-27 18:22:00,76.4,51.3,0.00,NE,53,3.8,8.2,42,0.00,,,0.00,WUHU216CR1000,2013-04-28 01:22:00,
2013-04-27 18:32:00,73.8,50.8,0.00,NE,54,4.3,8.2,45,0.00,,,0.00,WUHU216CR1000,2013-04-28 01:32:00,
2013-04-27 18:37:00,73.8,50.8,0.00,NE,54,4.3,8.2,45,0.00,,,0.00,WUHU216CR1000,2013-04-28 01:37:00,
2013-04-27 18:47:00,71.1,50.6,0.00,ENE,58,3.1,6.4,48,0.00,,,0.00,WUHU216CR1000,2013-04-28 01:47:00,
2013-04-27 18:52:00,71.1,50.6,0.00,ENE,58,3.1,6.4,48,0.00,,,0.00,WUHU216CR1000,2013-04-28 01:52:00,
2013-04-27 19:02:00,69.5,50.6,0.00,NNE,30,3.0,6.4,51,0.00,,,0.00,WUHU216CR1000,2013-04-28 02:02:00,
2013-04-27 19:07:00,69.5,50.6,0.00,NNE,30,3.0,6.4,51,0.00,,,0.00,WUHU216CR1000,2013-04-28 02:07:00,
2013-04-27 19:17:00,66.7,50.4,0.00,NE,39,3.1,6.4,56,0.00,,,0.00,WUHU216CR1000,2013-04-28 02:17:00,
2013-04-27 19:22:00,66.7,50.4,0.00,NE,39,3.1,6.4,56,0.00,,,0.00,WUHU216CR1000,2013-04-28 02:22:00,
2013-04-27 19:32:00,63.9,50.0,0.00,NNE,29,2.0,4.6,61,0.00,,,0.00,WUHU216CR1000,2013-04-28 02:32:00,
2013-04-27 19:37:00,63.9,50.0,0.00,NNE,29,2.0,4.6,61,0.00,,,0.00,WUHU216CR1000,2013-04-28 02:37:00,
2013-04-27 19:47:00,61.3,49.3,0.00,NE,46,0.3,2.8,65,0.00,,,0.00,WUHU216CR1000,2013-04-28 02:47:00,
2013-04-27 19:52:00,61.3,49.3,0.00,NE,46,0.3,2.8,65,0.00,,,0.00,WUHU216CR1000,2013-04-28 02:52:00,
2013-04-27 20:02:00,59.7,48.9,0.00,NE,34,1.1,4.6,67,0.00,,,0.00,WUHU216CR1000,2013-04-28 03:02:00,
2013-04-27 20:07:00,59.7,48.9,0.00,NE,34,1.1,4.6,67,0.00,,,0.00,WUHU216CR1000,2013-04-28 03:07:00,
2013-04-27 20:17:00,58.1,48.5,0.00,North,7,0.9,2.8,70,0.00,,,0.00,WUHU216CR1000,2013-04-28 03:17:00,
2013-04-27 20:22:00,58.1,48.5,0.00,North,7,0.9,2.8,70,0.00,,,0.00,WUHU216CR1000,2013-04-28 03:22:00,
2013-04-27 20:32:00,56.2,47.9,0.00,North,4,1.9,4.6,73,0.00,,,0.00,WUHU216CR1000,2013-04-28 03:32:00,
2013-04-27 20:37:00,56.2,47.9,0.00,North,4,1.9,4.6,73,0.00,,,0.00,WUHU216CR1000,2013-04-28 03:37:00,
2013-04-27 20:47:00,54.9,47.5,0.00,NNE,25,2.1,4.6,76,0.00,,,0.00,WUHU216CR1000,2013-04-28 03:47:00,
2013-04-27 20:52:00,54.9,47.5,0.00,NNE,25,2.1,4.6,76,0.00,,,0.00,WUHU216CR1000,2013-04-28 03:52:00,
2013-04-27 21:02:00,53.9,47.2,0.00,NE,42,0.9,4.6,78,0.00,,,0.00,WUHU216CR1000,2013-04-28 04:02:00,
2013-04-27 21:07:00,53.9,47.2,0.00,NE,42,0.9,4.6,78,0.00,,,0.00,WUHU216CR1000,2013-04-28 04:07:00,
2013-04-27 21:17:00,53.0,46.9,0.00,East,81,0.2,2.8,80,0.00,,,0.00,WUHU216CR1000,2013-04-28 04:17:00,
2013-04-27 21:22:00,53.0,46.9,0.00,East,81,0.2,2.8,80,0.00,,,0.00,WUHU216CR1000,2013-04-28 04:22:00,
2013-04-27 21:32:00,52.2,46.7,0.00,ENE,60,0.2,2.8,81,0.00,,,0.00,WUHU216CR1000,2013-04-28 04:32:00,
2013-04-27 21:37:00,52.2,46.7,0.00,ENE,60,0.2,2.8,81,0.00,,,0.00,WUHU216CR1000,2013-04-28 04:37:00,
2013-04-27 21:47:00,51.3,46.3,0.00,North,11,0.1,2.8,83,0.00,,,0.00,WUHU216CR1000,2013-04-28 04:47:00,
2013-04-27 21:52:00,51.3,46.3,0.00,North,11,0.1,2.8,83,0.00,,,0.00,WUHU216CR1000,2013-04-28 04:52:00,
2013-04-27 22:02:00,50.6,46.2,0.00,NNE,15,0.8,4.6,85,0.00,,,0.00,WUHU216CR1000,2013-04-28 05:02:00,
2013-04-27 22:07:00,50.6,46.2,0.00,NNE,15,0.8,4.6,85,0.00,,,0.00,WUHU216CR1000,2013-04-28 05:07:00,
2013-04-27 22:17:00,50.1,46.1,0.00,NNE,16,0.3,2.8,86,0.00,,,0.00,WUHU216CR1000,2013-04-28 05:17:00,
2013-04-27 22:22:00,50.1,46.1,0.00,NNE,16,0.3,2.8,86,0.00,,,0.00,WUHU216CR1000,2013-04-28 05:22:00,
2013-04-27 22:32:00,49.5,45.4,0.00,NE,49,0.0,2.8,86,0.00,,,0.00,WUHU216CR1000,2013-04-28 05:32:00,
2013-04-27 22:37:00,49.5,45.4,0.00,NE,49,0.0,2.8,86,0.00,,,0.00,WUHU216CR1000,2013-04-28 05:37:00,
2013-04-27 22:47:00,49.0,45.5,0.00,NNE,18,0.5,2.8,88,0.00,,,0.00,WUHU216CR1000,2013-04-28 05:47:00,
2013-04-27 22:52:00,49.0,45.5,0.00,NNE,18,0.5,2.8,88,0.00,,,0.00,WUHU216CR1000,2013-04-28 05:52:00,
2013-04-27 23:02:00,48.5,45.3,0.00,NNW,341,0.2,2.8,88,0.00,,,0.00,WUHU216CR1000,2013-04-28 06:02:00,
2013-04-27 23:07:00,48.5,45.3,0.00,NNW,341,0.2,2.8,88,0.00,,,0.00,WUHU216CR1000,2013-04-28 06:07:00,
2013-04-27 23:17:00,47.8,44.5,0.00,West,272,0.3,2.8,89,0.00,,,0.00,WUHU216CR1000,2013-04-28 06:17:00,
2013-04-27 23:22:00,47.8,44.5,0.00,West,272,0.3,2.8,89,0.00,,,0.00,WUHU216CR1000,2013-04-28 06:22:00,
2013-04-27 23:32:00,47.8,44.8,0.00,West,260,0.2,2.8,89,0.00,,,0.00,WUHU216CR1000,2013-04-28 06:32:00,
2013-04-27 23:37:00,47.8,44.8,0.00,West,260,0.2,2.8,89,0.00,,,0.00,WUHU216CR1000,2013-04-28 06:37:00,
2013-04-27 23:47:00,47.4,44.6,0.00,North,0,0.0,0.0,90,0.00,,,0.00,WUHU216CR1000,2013-04-28 06:47:00,
2013-04-27 23:52:00,47.4,44.6,0.00,North,0,0.0,0.0,90,0.00,,,0.00,WUHU216CR1000,2013-04-28 06:52:00,